KINEIS-3E (61222 NORAD) Tracking and Keplerian Element Data

This shows tracking and keplerian element data for the satellite.

Feedback or suggestion? Click here.




ElementValue
Catalog61222
NameKINEIS-3E
Epoch Orbit323
Epoch Day286.86709384
Epoch Year2024
RAAN13.2107
Inclination98.0172
Eccentricity6.58E-05
Argument of Perigee147.3419
Mean Anonmoly212.7832
Mean Motion14.77486917
Decay Rate0.00011145
L11 61222U 24172C 24286.86709384 .00011145 00000+0 15686-2 0 9995
L22 61222 98.0172 13.2107 0000658 147.3419 212.7832 14.77486917 3231



Live tracking and technical data element details for KINEIS-3E (NORAD 61222). KINEIS-3E can be tracked NOW for your location showing map with azimuth and elevation plus other details from your city location.







IsCatalogInMostPopularTable: catalog: 61222, numindb: 25
Update: records affected: 1



GetName: 61222 KINEIS-3E

Hit Count: updated at: Fri, 06 Dec 2024 10:12:34 GMT